Tracking 31027 objects as of 19-Jul-2025
HD Live streaming from Space Station
objects crossing your sky now

DELTA 1 DEB

Track DELTA 1 DEB now!
10-day predictions


NORAD ID: 21290
Int'l Code: 1975-052AB
Perigee: 1,096.0 km
Apogee: 1,903.6 km
Inclination: 99.5 °
Period: 115.8 minutes
Semi major axis: 7870 km
RCS: 0.0116 m2 (small)
Launch date: June 12, 1975
Source: United States (US)
Launch site: AIR FORCE WESTERN TEST RANGE (AFWTR)

Note: This is SATELLITE DEBRIS
Your satellite tracking list
FENGYUN 1C DEB
Track 1 satellite(s)




NASA's NSSDC Master Catalog

Two Line Element Set (TLE):
1 21290U 75052AB  25198.35486361  .00000103  00000-0  59605-3 0  9996
2 21290  99.5264 163.6643 0513004 141.8625  14.4369 12.43297919551500
Source of the keplerian elements: AFSPC